CAPE
0 0 0 0 0 0 0 0 0 0 0 0 0 0 0 0 0 0 0 0 0 0 0 0 0 0 0 0 0 0 0 0 0 0 0 0 0 0 0 0 0 0 0 0 0
0 0 0 0 0 0 0 0 0 0 0 0 0 0 0 0 0 0 0 0 0 0 0 0 0 0 0 0 0 0 0 0 0 0 0 0 0 0 0 0 0 0 0 0 0
0 0 0 0 0 0 0 0 0 0 0 0 0 0 0 0 0 0 0 0 0 0 0 0 0 0 0 0 0 0 0 0 0 0 0 0 0 0 0 0 0 0 0 0 0
0 0 0 0 0 0 0 0 0 0 0 0 0 0 0 0 0 0 0 0 0 0 0 0 0 0 0 0 0 0 0 0 0 0 0 0 0 0 0 0 0 0 0 0 0
0 0 0 0 0 0 0 0 0 0 0 0 0 0 0 0 0 0 0 0 0 0 0 0 0 0 0 0 0 0 0 0 0 0 0 0 0 0 0 0 0 0 0 0 0
0 0 0 0 0 0 0 0 0 0 0 0 0 0 0 0 0 0 0 0 0 0 0 0 0 0 0 0 0 0 0 0 0 0 0 0 0 0 0 0 0 0 0 0 0
0 0 0 0 0 0 0 0 0 0 0 0 0 0 0 0 0 0 0 0 0 0 0 0 0 0 0 0 0 0 0 0 0 0 0 0 0 0 0 0 0 0 0 0 0
0 0 0 0 0 0 0 0 0 0 0 0 0 0 0 0 0 0 0 0 0 0 0 0 0 0 0 0 0 0 0 0 0 0 0 0 0 0 0 0 0 0 0 0 0
2 0 0 0 0 0 0 0 0 0 0 0 0 0 0 0 0 0 0 0 0 0 0 0 0 0 0 0 0 0 0 0 0 0 0 0 0 0 0 0 0 0 0 0 0
1 0 0 0 0 0 0 0 0 0 0 0 0 0 0 0 0 0 0 0 0 0 0 0 0 0 0 0 0 0 0 0 0 0 0 0 0 0 0 0 0 0 0 0 0
0 2 0 0 0 0 0 0 0 0 0 0 0 0 0 0 0 0 0 0 0 0 0 0 0 0 0 0 0 0 0 0 0 0 0 0 0 0 0 0 0 0 0 0 0
0 0 0 0 0 0 0 0 0 0 0 0 0 0 0 0 0 0 0 0 0 0 0 0 0 0 0 0 0 0 0 0 0 0 0 0 0 0 0 0 0 0 0 0 0
0 0 3 5 7 5 1 0 0 0 0 0 0 0 0 0 0 0 0 0 0 0 0 0 0 0 0 0 0 0 0 0 0 0 0 0 0 0 0 0 0 0 0 0 0
0 0 0 11 9 6 3 0 0 0 0 0 0 0 0 0 0 0 0 0 0 0 0 0 0 0 0 0 0 0 0 0 0 0 0 0 0 0 0 0 0 0 0 0 0
0 0 0 6 0 0 0 0 0 0 0 0 0 0 0 0 0 0 0 0 0 0 0 0 0 0 0 0 0 0 0 0 0 0 0 0 0 0 0 0 0 0 0 0 0
1 0 0 2 9 1 0 0 0 0 0 0 0 0 0 0 0 0 0 0 0 0 0 0 0 0 0 0 0 0 0 0 0 0 0 0 0 0 0 0 0 0 0 0 0
1 1 1 4 3 0 0 52 23 2 0 0 0 0 0 0 0 0 0 0 0 0 0 0 0 0 0 0 0 0 0 0 0 0 0 0 0 0 0 0 0 0 0 0 0
1 1 1 3 10 0 16 32 9 0 0 0 0 0 0 0 0 0 0 0 0 0 0 0 0 0 0 0 0 0 0 0 0 0 0 0 0 0 0 0 0 0 0 0 0
1 1 2 3 1 0 28 1 0 0 0 0 0 0 0 0 0 0 0 0 0 0 0 0 0 0 0 0 0 0 0 0 0 0 0 0 0 0 0 0 0 0 0 0 0
3 3 2 4 0 1 11 0 0 0 0 0 0 0 0 0 0 0 0 0 0 0 0 0 0 0 0 0 0 0 0 0 0 0 0 0 0 0 0 0 0 0 0 0 0
13 4 3 28 2 2 2 0 0 5 2 1 0 0 0 0 0 0 0 0 0 0 0 0 0 0 0 0 0 0 0 0 0 0 0 0 0 0 0 0 0 0 0 0 0
38 6 37 42 1 10 3 0 1 2 1 0 0 0 0 0 0 0 0 0 0 0 0 0 0 0 0 0 0 0 0 0 0 0 0 0 0 0 0 0 0 0 0 0 0
29 5 0 36 4 5 3 1 1 4 0 1 0 0 0 0 0 0 0 0 0 0 0 0 0 0 0 0 0 0 0 0 0 0 0 0 0 0 0 0 0 0 0 0 0
53 3 4 1 8 10 5 3 2 2 1 3 0 0 0 0 0 0 0 0 0 0 0 0 0 0 0 0 0 0 0 0 0 0 0 0 0 0 0 0 0 0 0 0 0
25 0 1 3 1 1 6 0 3 4 3 0 0 2 0 2 1 0 0 0 0 0 0 0 0 0 0 0 0 0 0 0 0 0 0 0 0 0 0 0 0 0 0 0 0
1 2 2 3 2 2 5 3 1 2 1 2 3 0 2 1 0 1 0 0 0 0 0 0 0 1 0 0 0 0 0 0 0 0 0 0 0 0 0 0 0 0 0 0 0
1 0 1 0 1 1 0 2 2 1 1 4 0 2 0 0 4 5 0 0 1 0 0 1 2 1 0 0 0 0 0 0 0 0 0 0 0 0 0 0 0 0 0 0 0
CIN
0 0 0 0 0 0 0 0 0 0 0 0 0 0 0 0 0 0 0 0 0 0 0 0 0 0 0 0 0 0 0 0 0 0 0 0 0 0 0 0 0 0 0 0 0
0 0 0 0 0 0 0 0 0 0 0 0 0 0 0 0 0 0 0 0 0 0 0 0 0 0 0 0 0 0 0 0 0 0 0 0 0 0 0 0 0 0 0 0 0
0 0 0 0 0 0 0 0 0 0 0 0 0 0 0 0 0 0 0 0 0 0 0 0 0 0 0 0 0 0 0 0 0 0 0 0 0 0 0 0 0 0 0 0 0
0 0 0 0 0 0 0 0 0 0 0 0 0 0 0 0 0 0 0 0 0 0 0 0 0 0 0 0 0 0 0 0 0 0 0 0 0 0 0 0 0 0 0 0 0
0 0 0 0 0 0 0 0 0 0 0 0 0 0 0 0 0 0 0 0 0 0 0 0 0 0 0 0 0 0 0 0 0 0 0 0 0 0 0 0 0 0 0 0 0
0 0 0 0 0 0 0 0 0 0 0 0 0 0 0 0 0 0 0 0 0 0 0 0 0 0 0 0 0 0 0 0 0 0 0 0 0 0 0 0 0 0 0 0 0
0 0 0 0 0 0 0 0 0 0 0 0 0 0 0 0 0 0 0 0 0 0 0 0 0 0 0 0 0 0 0 0 0 0 0 0 0 0 0 0 0 0 0 0 0
0 0 0 0 0 0 0 0 0 0 0 0 0 0 0 0 0 0 0 0 0 0 0 0 0 0 0 0 0 0 0 0 0 0 0 0 0 0 0 0 0 0 0 0 0
-1 0 0 0 0 0 0 0 0 0 0 0 0 0 0 0 0 0 0 0 0 0 0 0 0 0 0 0 0 0 0 0 0 0 0 0 0 0 0 0 0 0 0 0 0
0 -1 0 0 0 0 0 0 0 0 0 0 0 0 0 0 0 0 0 0 0 0 0 0 0 0 0 0 0 0 0 0 0 0 0 0 0 0 0 0 0 0 0 0 0
0 -3 0 0 0 0 0 0 0 0 0 0 0 0 0 0 0 0 0 0 0 0 0 0 0 0 0 0 0 0 0 0 0 0 0 0 0 0 0 0 0 0 0 0 0
0 -1 0 0 0 0 0 0 0 0 0 0 0 0 0 0 0 0 0 0 0 0 0 0 0 0 0 0 0 0 0 0 0 0 0 0 0 0 0 0 0 0 0 0 0
0 0 -5 -4 -3 0 0 0 0 0 0 0 0 0 0 0 0 0 0 0 0 0 0 0 0 0 0 0 0 0 0 0 0 0 0 0 0 0 0 0 0 0 0 0 0
0 0 0 -5 0 -1 0 0 0 0 0 0 0 0 0 0 0 0 0 0 0 0 0 0 0 0 0 0 0 0 0 0 0 0 0 0 0 0 0 0 0 0 0 0 0
0 0 0 -4 0 -1 0 0 0 0 0 0 0 0 0 0 0 0 0 0 0 0 0 0 0 0 0 0 0 0 0 0 0 0 0 0 0 0 0 0 0 0 0 0 0
0 0 0 -2 -3 -1 0 0 0 0 0 0 0 0 0 0 0 0 0 0 0 0 0 0 0 0 0 0 0 0 0 0 0 0 0 0 0 0 0 0 0 0 0 0 0
0 0 0 0 0 0 0 -19 -2 -1 0 0 0 0 0 0 0 0 0 0 0 0 0 0 0 0 0 0 0 0 0 0 0 0 0 0 0 0 0 0 0 0 0 0 0
0 0 0 0 -1 0 -13 0 -2 0 0 0 0 0 0 0 0 0 0 0 0 0 0 0 0 0 0 0 0 0 0 0 0 0 0 0 0 0 0 0 0 0 0 0 0
0 0 0 0 -1 0 0 0 0 0 0 0 0 0 0 0 0 0 0 0 0 0 0 0 0 0 0 0 0 0 0 0 0 0 0 0 0 0 0 0 0 0 0 0 0
0 0 0 0 0 0 0 0 0 0 0 0 0 0 0 0 0 0 0 0 0 0 0 0 0 0 0 0 0 0 0 0 0 0 0 0 0 0 0 0 0 0 0 0 0
-3 0 -9 -34 0 0 0 0 0 -2 -1 -4 0 0 0 0 0 0 0 0 0 0 0 0 0 0 0 0 0 0 0 0 0 0 0 0 0 0 0 0 0 0 0 0 0
0 0 -2 -1 0 0 0 0 -1 -1 -7 0 0 0 0 0 0 0 0 0 0 0 0 0 0 0 0 0 0 0 0 0 0 0 0 0 0 0 0 0 0 0 0 0 0
-1 -1 0 0 0 0 0 0 0 -1 -1 -1 0 0 0 0 0 0 0 0 0 0 0 0 0 0 0 0 0 0 0 0 0 0 0 0 0 0 0 0 0 0 0 0 0
0 -5 -1 -4 -2 0 0 0 0 -1 -2 -1 -1 -1 0 0 0 0 0 0 0 0 0 0 0 0 0 0 0 0 0 0 0 0 0 0 0 0 0 0 0 0 0 0 0
-4 0 0 0 0 0 0 0 0 0 0 0 -1 -1 -1 0 0 0 0 0 0 0 0 0 0 0 0 0 0 0 0 0 0 0 0 0 0 0 0 0 0 0 0 0 0
-1 0 0 0 -2 0 0 0 0 0 -1 0 0 -1 -1 0 0 -1 0 0 0 0 0 0 0 0 0 0 0 0 0 0 0 0 0 0 0 0 0 0 0 0 0 0 0
0 0 0 -1 -1 0 0 0 0 0 0 0 0 0 0 0 -1 0 0 0 -1 0 0 0 0 0 0 0 0 0 0 0 0 0 0 0 0 0 0 0 0 0 0 0 0
Wind_Speed
16 16 16 16 16 16 17 17 17 17 18 19 19 20 20 21 21 18 18 16 16 16 17 15 15 16 16 16 16 15 13 10 10 6 8 8 7 8 11 10 12 15 15 15 19
19 19 18 18 18 18 18 18 19 19 20 20 21 21 22 22 21 20 16 16 16 13 14 14 15 15 14 15 15 14 15 14 16 11 9 7 6 7 8 8 11 12 14 17 17
22 22 21 20 20 20 20 20 20 21 21 22 23 23 23 22 20 15 16 15 13 14 15 15 14 14 14 15 15 16 17 15 12 11 10 8 8 9 9 9 15 12 13 15 15
25 24 24 23 22 22 22 22 22 23 23 24 24 24 24 19 20 15 15 13 12 14 11 11 12 15 18 17 16 16 16 14 13 10 10 8 13 12 11 15 13 14 13 13 14
27 26 26 25 25 24 24 24 24 24 25 25 25 25 21 20 20 15 14 12 11 11 12 13 15 17 18 18 17 16 15 14 12 10 10 13 11 15 12 13 13 13 14 14 16
29 29 28 27 27 26 26 26 26 26 27 26 26 25 22 26 17 16 14 12 13 12 13 14 17 17 19 18 16 17 15 14 12 10 11 14 13 15 11 11 12 13 13 14 17
32 31 30 29 28 28 28 27 27 27 28 25 24 23 25 26 19 16 15 15 14 15 15 16 16 15 16 18 17 18 20 15 13 13 16 14 15 13 11 8 10 11 13 16 19
33 32 31 30 29 29 29 28 28 29 27 25 25 24 29 20 19 17 15 16 14 15 15 14 15 15 17 16 18 19 20 20 14 12 16 12 20 10 9 7 9 13 15 18 20
34 33 32 31 30 29 29 29 29 28 26 26 25 25 31 19 20 17 16 17 14 15 15 13 15 16 15 18 21 18 24 16 19 12 16 12 19 14 8 9 13 15 16 16 18
35 34 33 32 31 30 29 28 28 28 25 24 25 28 25 23 18 15 15 12 17 13 15 15 16 18 17 16 23 25 20 22 22 17 17 16 18 16 12 12 14 16 16 17 18
34 34 32 31 30 29 28 27 30 30 28 30 27 27 24 19 17 17 14 13 14 15 20 17 20 19 18 18 22 27 27 26 24 20 23 20 22 20 15 15 16 16 17 19 18
33 32 31 30 29 28 27 30 29 26 37 32 34 32 26 21 25 19 13 17 18 21 17 22 24 20 21 24 21 23 26 27 28 22 25 29 32 29 21 16 18 19 19 18 17
35 32 29 28 26 27 30 29 25 26 38 41 33 36 31 25 30 24 16 20 23 23 21 26 26 21 19 21 22 23 25 28 30 25 26 35 43 35 23 19 23 23 19 16 13
35 35 30 25 29 29 33 27 24 23 41 45 37 37 29 26 35 23 18 22 25 26 24 29 25 23 22 23 21 29 25 28 31 32 36 24 45 35 26 20 21 18 16 13 10
36 32 31 28 31 29 27 19 17 21 46 33 26 25 24 27 25 27 19 24 28 25 22 27 24 24 26 26 22 30 25 27 29 36 41 37 40 43 29 24 22 17 13 11 8
35 31 26 30 36 30 23 15 16 30 49 30 24 26 24 25 27 22 22 22 24 25 29 32 26 24 24 23 22 20 25 28 30 34 43 35 32 46 30 27 22 13 11 10 9
33 32 30 30 36 22 18 19 32 46 30 38 29 23 23 25 26 24 22 24 24 27 29 28 30 27 23 25 25 22 25 34 35 32 40 29 27 31 24 21 16 10 11 10 9
33 29 33 36 27 22 22 29 43 48 42 24 24 26 29 23 27 24 22 26 24 24 31 29 34 23 24 24 28 23 23 28 38 36 37 28 32 31 24 17 14 9 8 9 9
33 33 38 35 28 25 31 42 46 44 39 41 28 32 30 28 27 26 29 32 26 23 25 29 34 24 22 22 20 26 29 26 35 33 38 31 31 30 21 19 16 9 8 10 10
35 34 39 32 30 32 41 47 49 45 39 34 46 39 41 34 32 29 30 32 30 23 21 29 36 27 25 23 24 26 21 26 27 34 37 33 31 28 19 16 14 12 10 9 9
33 37 32 22 31 42 51 51 49 39 33 39 43 42 43 37 36 36 36 33 26 23 24 29 34 33 26 28 26 26 28 26 26 28 34 38 33 19 19 13 12 13 11 10 10
34 40 27 24 40 44 50 50 43 44 38 41 38 40 39 37 37 38 39 36 24 21 27 30 34 41 37 29 28 27 27 24 31 31 32 36 38 20 18 12 10 12 12 11 11
38 40 33 29 47 47 47 55 51 44 44 42 44 42 40 40 42 41 38 35 27 28 27 24 32 39 39 34 30 32 30 29 29 30 34 34 34 21 19 16 13 12 13 13 13
35 42 39 41 38 48 47 51 53 49 44 46 46 41 41 45 42 42 40 34 30 31 27 23 31 36 40 33 26 30 29 29 30 35 35 37 36 28 22 20 17 16 15 14 15
35 45 39 43 53 55 44 45 50 50 48 43 49 46 44 45 46 49 39 34 31 30 28 29 40 38 43 43 37 35 32 29 32 37 35 39 37 33 27 24 21 18 17 17 18
39 38 37 45 44 41 48 47 48 46 44 49 52 47 49 50 48 46 44 39 37 32 32 31 42 40 53 45 45 49 45 37 37 37 39 40 41 30 27 26 25 23 21 21 22
33 36 38 47 48 48 50 41 48 42 42 46 48 45 46 52 50 52 46 43 40 40 37 36 40 41 52 43 45 49 47 42 42 39 37 42 41 36 31 28 27 24 23 26 25
Wind_Direction
263 266 268 269 272 275 276 277 280 282 283 282 282 279 278 279 273 293 294 298 294 295 289 308 312 312 322 330 335 346 352 5 11 46 31 41 64 36 358 15 355 347 351 340 321
263 265 269 272 276 278 279 280 282 284 285 287 286 285 284 285 290 292 313 307 305 322 312 314 318 323 332 337 343 343 340 344 341 2 13 34 41 26 16 10 356 353 351 340 330
264 266 270 274 277 279 281 284 285 285 285 287 289 289 289 291 302 320 317 314 321 314 313 318 325 327 331 333 335 333 330 339 349 356 5 11 358 354 352 349 327 344 351 349 348
266 268 270 273 277 280 283 284 286 286 287 288 289 290 291 304 293 324 322 332 332 317 334 341 336 325 320 323 329 330 332 340 344 352 353 352 332 335 332 323 333 331 338 344 343
267 269 271 274 276 279 282 284 286 287 289 290 291 293 299 298 300 319 329 336 342 336 332 331 325 322 318 322 326 324 331 335 342 348 345 330 329 319 325 328 331 332 331 326 325
267 268 271 274 276 279 281 284 286 288 289 292 294 294 296 286 311 314 319 325 325 327 324 324 321 322 318 319 320 326 326 328 331 333 328 319 320 319 320 326 322 322 322 322 321
266 268 270 273 276 279 281 282 285 288 290 295 298 298 291 287 306 314 315 314 318 318 316 318 323 322 325 318 321 320 316 318 315 317 318 318 309 307 318 328 323 318 318 319 318
267 268 270 273 276 279 281 283 285 288 291 295 296 297 285 301 305 304 307 311 318 319 318 324 324 321 318 324 321 316 314 311 324 318 316 311 310 320 320 316 313 309 310 313 315
266 267 270 272 276 279 281 283 286 288 291 293 293 291 284 303 296 299 301 302 311 315 318 321 318 314 316 310 309 309 303 311 315 318 317 307 311 314 315 308 305 305 309 315 318
266 267 268 271 274 278 281 284 287 288 289 291 290 287 285 291 301 303 303 301 303 307 309 307 306 300 302 298 297 302 303 304 305 315 305 302 297 307 305 300 300 302 305 310 315
267 266 267 270 273 276 280 283 281 280 277 274 282 280 288 295 301 295 299 299 305 296 290 293 290 287 289 288 293 300 299 301 307 309 304 298 295 297 293 294 294 297 300 304 309
266 266 267 269 271 274 275 273 279 287 279 276 274 275 283 285 285 286 288 284 285 283 285 294 282 289 293 295 291 294 296 297 300 304 302 297 292 292 290 280 286 291 293 298 304
261 264 264 267 270 270 269 272 287 291 279 275 272 271 273 272 276 272 264 280 283 279 278 282 295 295 286 291 290 290 291 295 296 304 301 298 289 288 278 281 291 289 288 291 292
259 258 258 263 266 266 267 273 283 293 278 273 271 273 265 269 272 273 258 279 282 278 281 284 282 290 287 285 288 289 293 294 294 295 294 301 289 290 296 279 287 287 276 274 276
259 256 252 245 269 256 273 267 273 286 272 282 266 278 269 254 275 270 265 273 272 274 277 284 284 282 281 286 288 293 301 297 296 291 291 287 291 291 289 283 285 276 263 254 250
259 254 248 251 260 261 266 255 258 264 264 275 276 270 266 258 271 279 266 276 279 275 277 277 290 285 284 291 288 298 301 301 299 295 285 286 283 288 286 290 286 264 249 239 238
258 253 243 248 251 257 253 237 249 251 268 266 271 271 262 264 266 266 260 258 261 270 270 277 274 282 284 285 290 285 292 296 294 289 289 300 284 279 304 302 292 250 234 230 235
273 251 246 248 249 242 242 238 252 249 242 274 278 266 262 265 266 263 263 264 253 267 280 274 279 266 273 266 284 273 273 286 293 291 294 299 289 293 294 296 297 276 233 222 224
272 269 256 243 235 235 235 239 246 243 250 250 269 269 265 267 272 263 261 266 266 243 268 275 278 283 287 285 270 285 273 282 291 293 293 292 295 297 295 287 285 267 232 222 221
265 268 260 246 228 230 237 243 254 260 257 251 250 258 263 263 263 262 262 270 267 248 258 279 280 285 285 286 281 278 289 283 279 286 288 292 288 290 292 278 272 255 238 229 231
262 263 262 242 229 233 239 245 248 259 251 250 255 259 259 262 257 261 269 273 260 262 248 272 277 282 285 275 272 275 273 280 283 275 287 290 293 298 285 273 257 250 235 227 224
260 257 265 232 238 240 238 234 252 249 256 255 261 255 259 258 259 259 262 267 262 262 261 262 279 274 275 285 279 271 274 260 276 281 278 285 284 301 302 292 268 256 249 250 242
259 256 261 243 246 243 246 246 248 251 245 253 253 256 257 259 264 260 265 268 262 260 260 261 272 274 278 282 281 274 267 269 264 283 271 275 281 293 294 294 282 269 260 257 253
262 254 253 252 256 250 250 249 245 249 254 249 254 258 257 258 259 268 264 269 264 263 266 257 265 264 266 279 286 278 269 259 261 266 266 259 275 284 284 281 279 274 269 262 259
261 253 254 253 251 252 253 253 249 247 248 252 253 252 251 258 260 260 264 270 269 267 264 256 265 266 267 274 277 280 275 262 252 248 265 257 269 275 274 272 271 270 269 269 268
256 258 255 256 257 258 252 252 250 251 248 249 252 253 251 255 256 263 262 262 264 266 262 263 270 270 270 272 273 273 275 268 256 259 261 265 271 286 277 273 272 270 269 271 273
261 264 266 254 255 255 255 262 253 252 254 254 253 255 256 254 260 265 268 266 267 261 261 263 267 269 271 276 274 275 249 266 267 260 266 264 266 279 279 275 272 271 274 277 274